Location: Unspecified
(0.0000°N, 0.0000°E)
Time: 05:26:38
(UTC+00:00)

NRL adapter - Visible Passes

Search period start: 17 September 2024 00:00
Search period end: 27 September 2024 00:00
Orbit: 1060 x 1158 km, 89.9° (Epoch: 16 September)

Date Brightness Start Highest point End Pass type
(mag) Time Alt. Az. Time Alt. Az. Time Alt. Az.
17 Sep ? 03:44:02 10° NNE 03:49:57 33° E 03:55:47 10° SSE visible
17 Sep ? 05:32:00 10° NW 05:36:52 21° W 05:41:42 10° SW visible
18 Sep ? 03:05:08 10° ENE 03:07:57 13° E 03:10:43 10° ESE visible
18 Sep ? 04:48:25 10° N 04:54:53 52° W 05:01:18 10° SSW visible
19 Sep ? 04:06:14 10° NNE 04:12:53 68° E 04:19:27 10° S visible
20 Sep ? 03:25:18 10° NE 03:30:51 28° E 03:36:21 10° SSE visible
20 Sep ? 05:12:30 10° NNW 05:17:48 25° W 05:23:04 10° SW visible
21 Sep ? 02:48:08 10° E 02:48:51 10° E 02:49:34 10° E visible
21 Sep ? 04:29:13 10° N 04:35:48 61° W 04:42:18 10° SSW visible
22 Sep ? 03:47:16 10° NNE 03:53:47 58° E 04:00:14 10° S visible
23 Sep ? 03:06:38 10° NE 03:11:45 24° E 03:16:50 10° SE visible
23 Sep ? 04:53:04 10° NNW 04:58:42 30° W 05:04:18 10° SW visible
24 Sep ? 04:10:04 10° N 04:16:42 72° W 04:23:16 10° S visible
25 Sep ? 03:28:19 10° NNE 03:34:40 48° E 03:40:58 10° SSE visible
25 Sep ? 05:18:28 10° WNW 05:21:34 14° W 05:24:43 10° WSW visible
26 Sep ? 02:48:04 10° NE 02:52:39 20° E 02:57:12 10° SE visible
26 Sep ? 04:33:41 10° NNW 04:39:35 35° W 04:45:30 10° SSW visible
